World > North America > United States > North Dakota

Orrin, North Dakota Regional Weather

Lat: 48.09N, Lon: 100.16W
Wx Zone: NDZ013Web Search
Orrin Weather Warning NWS WEATHER ALERT FOR THE ORRIN, ND AREA - Issued: 225 PM CDT Wed May 5 2021 Orrin Weather Warning  

Our weather pages are very print friendly and they make great conversation starters.

Feedback


°F Click to change Orrin hourly weather to Imperial units.Click to change Orrin hourly weather to Metric units. °C
Orrin Weather Map
UTC Time: 5/5/2021, 22:23
Your Time:

Orrin, ND Regional Weather

Expires:202105052300;;653184
ASUS43 KBIS 052210
RWRND 

NORTH DAKOTA REGIONAL WEATHER ROUNDUP
NATIONAL WEATHER SERVICE BISMARCK ND
500 PM CDT WED MAY 05 2021

NOTE: "FAIR" INDICATES FEW OR NO CLOUDS BELOW 12,000 FEET WITH NO
SIGNIFICANT WEATHER AND/OR OBSTRUCTIONS TO VISIBILITY.



NDZ004>008-012>016-024-026-027-054-052300-
NORTHEAST NORTH DAKOTA
  
CITY           SKY/WX    TMP DP  RH WIND       PRES   REMARKS
GRAND FORKS    PTSUNNY   53  29  39 VRB6      30.15F                  
GRND FRKS AFB  LGT RAIN  52  34  50 NW12      30.17S                  
DEVILS LAKE    LGT RAIN  51  33  50 N8        30.15S                  
$$
 

SKY/WX - Weather  TMP - Temperature  DP - Dew Point  RH - Relative Humidity
WIND - Wind Direction/Speed PRES - Barometric Pressure VSB - Visibility
WCI - Wind Chill Index E13G22 Wind - East Wind 13 mph/Gusts of 22 mph